SARAL (39086 NORAD) Tracking and Keplerian Element Data

This shows tracking and keplerian element data for the satellite.

Feedback or suggestion? Click here.




ElementValue
Catalog39086
NameSARAL
Epoch Orbit44761
Epoch Day261.87571015
Epoch Year2021
RAAN86.5319
Inclination98.5477
Eccentricity0.0001275
Argument of Perigee44.9885
Mean Anonmoly315.1401
Mean Motion14.32060978
Decay Rate5E-08
L11 39086U 13009A 21261.87571015 .00000005 00000-0 18137-4 0 9994
L22 39086 98.5477 86.5319 0001275 44.9885 315.1401 14.32060978447610

Live tracking and technical data element details for SARAL (NORAD 39086). SARAL can be tracked NOW for your location showing map with azimuth and elevation plus other details from your city location.

Track the satellite on the map from your city or location and see movement details for azimuth, elevation, latitude, longitude, range, height, and movement on the map or in text.







IsCatalogInMostPopularTable: catalog: 39086, numindb: 528
Update: records affected: 1



GetName: 39086 SARAL

Hit Count: updated at: Sun, 26 Sep 2021 00:21:53 GMT